Regional Weather Roundup
Issued by NWS

Home | Current Version | Previous Version | Graphics & Text | Print | Product List | Glossary On
Versions: 1 2 3 4 5 6 7 8 9 10 11 12 13 14 15 16 17 18 19 20 21 22 23 24 25 26 27 28 29 30 31 32 33 34 35 36 37 38 39 40 41 42 43 44 45 46 47 48 49 50
173
ASUS43 KMPX 190610
RWRMN
WEATHER ROUNDUP FOR MINNESOTA
NATIONAL WEATHER SERVICE TWIN CITIES/CHANHASSEN MN
1200 AM CST THU JAN 19 2017


NOTE: "FAIR" INDICATES FEW OR NO CLOUDS BELOW 12,000 FEET WITH NO
SIGNIFICANT WEATHER AND/OR OBSTRUCTIONS TO VISIBILITY. N/A MEANS
CURRENT SKY AND/OR WEATHER CONDITIONS ARE NOT AVAILABLE.

MNZ060>063-068>070-190700-
   Twin Cities Metro

CITY           SKY/WX    TMP DP  RH WIND       PRES   REMARKS
TWIN CITIES    CLOUDY    30  28  92 SE6       29.83F WCI  24
6HR MIN TEMP:  30; 6HR MAX TEMP:  38;

ST PAUL        CLOUDY    31  30  96 CALM      29.85F FOG
CRYSTAL        CLOUDY    29  26  89 S5        29.81F FOG     WCI  24
BLAINE         CLOUDY    34  34 100 S7        29.81F FOG     WCI  28
LAKEVILLE      CLOUDY    32  32 100 S8        29.83F WCI  25
EDEN PRAIRIE   CLOUDY    34  31  88 S7        29.81F WCI  28
6HR MIN TEMP:  34; 6HR MAX TEMP:  37;

SOUTH ST PAUL  FOG       28  27  99 CALM      29.85S VSB 1
LAKE ELMO      FAIR      30  30 100 S5        29.84F FOG     WCI  25
$$
MNZ001>005-007-008-013>017-022>024-027-028-190700-
   Northwest Minnesota

CITY           SKY/WX    TMP DP  RH WIND       PRES   REMARKS
BEMIDJI        CLOUDY    26  21  83 S6        29.68F WCI  19
HALLOCK        CLOUDY    27  23  86 S18       29.58F WCI  13
ROSEAU         CLOUDY    30  25  80 S10       29.60F WCI  21
WARROAD        CLOUDY    30  25  80 SW5       29.62S WCI  25
THIEF RVR FALL CLOUDY    29  23  78 S12       29.64F WCI  19
CROOKSTON      CLOUDY    30  25  80 S17       29.65S WCI  18
FOSSTON        CLOUDY    27  19  74 S8        29.65F WCI  18
DETROIT LAKES  CLOUDY    28  25  86 SE8       29.68F WCI  20
MOORHEAD       CLOUDY    28  25  86 S13       29.68F WCI  18
PARK RAPIDS    CLOUDY    24  19  81 SE9       29.70F WCI  14
MAHNOMEN       FAIR      30  22  73 SE8       29.66F WCI  22
$$
MNZ006-009>011-018-025>026-190700-
   North Central Minnesota

CITY           SKY/WX    TMP DP  RH WIND       PRES   REMARKS
BAUDETTE       CLOUDY    30  22  72 S6        29.62F WCI  24
FLAG ISLAND    CLOUDY    21  18  86 SE12      29.61S WCI   9
INTL FALLS     CLOUDY    27  21  78 SE3       29.67F
6HR MIN TEMP:  23; 6HR MAX TEMP:  32;

WASKISH        CLOUDY    34  25  69 S7        29.65F WCI  28
BIG FORK       CLOUDY    30  25  80 S6        29.71F WCI  24
LONGVILLE      CLOUDY    27  25  93 SE5       29.72F WCI  21
GRAND RAPIDS   CLOUDY    29  26  89 S7        29.75F WCI  22
CRANE LAKE     CLOUDY    18  18 100 CALM      29.74S
ORR            CLOUDY    30  21  69 CALM      29.69F
COOK           CLOUDY    30  25  80 S3        29.72F
WALKER         FAIR      32  27  81 S5        29.70F WCI  27
$$
MNZ012-019>021-037-190700-
   Northeast Minnesota

CITY           SKY/WX    TMP DP  RH WIND       PRES   REMARKS
DULUTH         CLOUDY    33  29  85 SW9       29.76F WCI  25
6HR MIN TEMP:  32; 6HR MAX TEMP:  36;

ELY            CLOUDY    27  25  93 CALM      29.73F
HIBBING        CLOUDY    21  21 100 CALM      29.74F
EVELETH        CLOUDY    21  19  93 CALM      29.76F FOG
DULUTH HARBOR  CLOUDY    30  27  86 CALM      29.80F FOG
TWO HARBORS    CLOUDY    28  25  86 CALM      29.76F
SILVER BAY     CLOUDY    23  23 100 CALM      29.76F
G MARAIS ARPRT CLOUDY    19  16  86 N3        29.75F
$$
MNZ029>031-032-039>041-046>048-054>057-064-190700-
   West Central Minnesota

CITY           SKY/WX    TMP DP  RH WIND       PRES   REMARKS
FERGUS FALLS   CLOUDY    28  27  93 SE9       29.73F WCI  20
WHEATON        CLEAR     32  30  93 SE15      29.71F WCI  22
MORRIS         FOG       28  27  93 SE12      29.71F VSB 1/4 WCI  18
ALEXANDRIA     FOG       26  26 100 SE8       29.72F VSB 1/2 WCI  18
ELBOW LAKE     FAIR      29  28  96 E12       29.70F FOG     WCI  19
WADENA         CLOUDY    25  25 100 SE3       29.71F FOG
GLENWOOD       FOG       23  23 100 SE5       29.73F VSB<1/4 WCI  17
APPLETON       FOG       28  27  93 SE7       29.72F VSB 1/4 WCI  21
ORTONVILLE     CLOUDY    27  25  93 SE5       29.70F FOG     WCI  21
MADISON        FOG       25  25 100 SE10      29.73F VSB 1/4 WCI  15
WILLMAR        FOG       27  27 100 SE6       29.77F VSB 1/4 WCI  20
$$
MNZ033>034-036-042>043-049>051-058-059-190700-
   Central Minnesota

CITY           SKY/WX    TMP DP  RH WIND       PRES   REMARKS
ST CLOUD       FOG       30  30 100 SE5       29.78F VSB 1/4 WCI  25
6HR MIN TEMP:  24; 6HR MAX TEMP:  32;

SAUK CENTRE    FOG       27  27 100 SE5       29.75F VSB 1/4 WCI  22
PAYNESVILLE    FOG       30  30 100 SE3       29.77S VSB 1/4
AITKIN         CLOUDY    32  27  80 S5        29.74F WCI  27
PINE RIVER     CLOUDY    25  25 100 SE3       29.77F FOG
BRAINERD       CLEAR     28  27  96 S7        29.74F FOG     WCI  21
STAPLES        CLOUDY    27  27 100 SE5       29.72F FOG     WCI  21
LONG PRAIRIE   FOG       27  25  93 E3        29.74F VSB<1/4
LITTLE FALLS   FOG       30  28  93 SE6       29.77S VSB 1/2 WCI  24
LITCHFIELD     FOG       30  30 100 S3        29.78F VSB 1/4
BUFFALO        FOG       31  30  96 CALM      29.81F VSB 1
MAPLE LAKE     FOG       31  31  99 S3        29.80F VSB 3/4
HUTCHINSON     CLOUDY    31  31  99 SE5       29.80F FOG     WCI  26
$$
MNZ037-044-045-052-053-190700-
   East Central Minnesota

CITY           SKY/WX    TMP DP  RH WIND       PRES   REMARKS
PRINCETON      CLOUDY    30  28  93 SE5       29.80F FOG     WCI  25
MORA           FOG       27  23  86 S3        29.82S VSB 1/4
CAMBRIDGE      CLOUDY    34  27  75 SE6       29.79F HAZE    WCI  29
RUSH CITY      CLOUDY    28  28 100 S6        29.82S FOG     WCI  22
MOOSE LAKE     CLOUDY    30  28  93 CALM      29.77F FOG
HINCKLEY       FAIR      30  30 100 S5        29.80F FOG     WCI  25
CLOQUET        CLOUDY    30  27  86 CALM      29.77F FOG
MCGREGOR       CLOUDY    28  27  93 S3        29.76F
$$
MNZ071>073-080-081-089-090-097-098-190700-
   Southwest Minnesota

CITY           SKY/WX    TMP DP  RH WIND       PRES   REMARKS
MONTEVIDEO     FOG       28  28 100 S7        29.75F VSB 1/4 WCI  21
GRANITE FALLS  CLOUDY    31  30  96 SE6       29.76S FOG     WCI  25
CANBY          CLOUDY    41  37  84 SW15G24   29.72S
MARSHALL       CLEAR     38  35  89 SW15      29.74F
REDWOOD FALLS  CLOUDY    35  32  88 S9        29.77S WCI  28
OLIVIA         CLEAR     30  28  93 SE7       29.77S FOG     WCI  23
PIPESTONE      CLEAR     37  36  93 SW15      29.75S
WINDOM           N/A     36  34  93 S13       29.79F
WORTHINGTON    CLEAR     38  34  85 S20       29.78F
JACKSON        CLEAR     34  32  93 S13       29.81S WCI  25
TRACY          CLEAR     40  37  89 SW21G29   29.75S
SLAYTON        CLEAR     36  34  94 S20       29.77S
$$
MNZ065>067-074>077-082>085-091>093-190700-
   South Central Minnesota

CITY           SKY/WX    TMP DP  RH WIND       PRES   REMARKS
MANKATO        CLEAR     35  33  92 S8        29.83S WCI  29
NEW ULM        CLEAR     34  32  93 S7        29.80S WCI  28
ST JAMES       CLEAR     36  34  93 S10       29.82S
FAIRMONT       CLEAR     34  33  96 S12       29.83F WCI  25
GLENCOE        CLOUDY    35  35  99 S3        29.80S
FARIBAULT      CLEAR     34  30  86 S6        29.85S WCI  29
OWATONNA       CLEAR     34  30  86 S14       29.85S WCI  24
WASECA         CLEAR     34  32  93 S10       29.86S WCI  26
ALBERT LEA     CLEAR     36  34  93 S7        29.86S
$$
MNZ078>079-086>088-094>096-190700-
   Southeast Minnesota

CITY           SKY/WX    TMP DP  RH WIND       PRES   REMARKS
ROCHESTER      CLEAR     33  32  96 S9        29.87F WCI  25
6HR MIN TEMP:  31; 6HR MAX TEMP:  33;

RED WING       CLOUDY    30  28  93 E3        29.86F FOG
STANTON        CLOUDY    37  32  84 S10       29.83S
DODGE CENTER   CLEAR     32  30  93 S9        29.86S WCI  24
WINONA         MOCLDY    36  34  93 SE5       29.92S
AUSTIN         CLEAR     32  30  93 S9        29.87F WCI  24
PRESTON        CLEAR     32  32  98 S17       29.89F WCI  21
$$
ABBREVIATIONS USED IN REMARKS
   TC - TEMPERATURES IN CELSIUS
  WCI - WIND CHILL INDEX
   HX - HEAT INDEX
  VSB - VISIBILITY
$$




USA.gov is the U.S. government's official web portal to all federal, state and local government web resources and services.